STARLINK-6202, 56896

Orbit data source: Space-Track

STARLINK-6202, 56896 is a payload satellite owned by SpaceX/Seattle (US) in LEO that was launched on Mon, 12 Jun 2023 UTC via an FALCON 9 launch vehicle from the Air Force Eastern Test Range (AFETR). Payload-class satellites include a variety of spacecraft equipped with specific instruments for various scientific and technological missions. These include communications satellites like Starlink; space stations such as the ISS; scientific satellites like the Hubble; Earth observation satellites from companies like Planet Labs, Umbra, and HawkEye 360; GPS; miniature CubeSats for education and research; and military/defense satellites.

Loading next visibility...
Identifier
56896, 2023-083W
Orbit
LEO
Country
Flag of USUS
Related business
Manufacturer
SpaceX/Seattle
Mission
Operational Commercial Communications
Bus & Motor
STARLINK, Unknown motor
Mass
305 kg wet, ~290 kg dry
Launch date (UTC)
2023-06-12 (3 years ago)
Launch vehicle
FALCON 9
Launch site
Air Force Eastern Test Range (AFETR)
Object type
Payload
Rocket body
Debris
Shape & HBR
Box + 1 Pan, 10.1 m
Radar Cross Section
11.087 m², Large (>1 m²)

Expand to show TLE details & history
Last TLE update: 2 days ago

TLE from 2 days ago
0 STARLINK-6202
1 56896U 23083W   26171.45651045 -.00000136  00000-0  45780-5 0  9997
2 56896  42.9983 228.5368 0001376 279.7021  80.3676 15.27576423167411
Epoch: 2026-06-20T10:57Z
TLE epoch observation values (Epoch: 2026-06-20T10:57:22.502Z)
Latitude
0.00002°
Longitude
155.5222°
Altitude
482.677 km
Speed
7.626 km/s
True Right ascension
15h 14m 08s
True Declination
0° 00' 00"
Sunlit
Object was in full shadow at epoch
Visualization orbit readout
Latitude
Unknown
Longitude
Unknown
Altitude
Unknown
Speed
Unknown
Apparent Right ascension
Unknown
Apparent Declination
Unknown
Sunlit
N/A
Visualization observer readout
Local Sidereal Time
21:30:53
Azimuth
Unknown
Elevation
Unknown
Doppler factor
Unknown
Orbital elements
Apogee altitude
485.95 km
Perigee altitude
484.061 km
Semi-major axis
6,863.142 km
Eccentricity
0.00014
Inclination
42.9983°
RAAN
228.5368°
Arg. of periapsis
279.7021°
True anomaly
80.38315°
Mean anomaly
80.3676°
Eccentric anomaly
80.37537°
Mean motion
3.81732 °/min
Orbital period
94.31 mins
BSTAR
0.000004578
Loading maneuver chart data...
Computing Atmospheric mass density...
Loading historical data...
Loading historical data...
Loading historical data...
Loading historical data...
Loading historical data...
Loading historical data...
Loading historical data...

Documentation

Showing up to 5 results
|